owner,sensor,date,latitude,longitude,air_temperature,qcFlag 
LUMCON,ioos:station:LUMCON:102:1,2015-02-01T00:45:00Z,29.1870,-90.6093,17.28,1111122 
LUMCON,ioos:station:LUMCON:102:1,2015-02-01T01:45:00Z,29.1870,-90.6093,17.67,1111122 
LUMCON,ioos:station:LUMCON:102:1,2015-02-01T02:45:00Z,29.1870,-90.6093,17.56,1111122 
LUMCON,ioos:station:LUMCON:102:1,2015-02-01T03:45:00Z,29.1870,-90.6093,17.28,1111122 
LUMCON,ioos:station:LUMCON:102:1,2015-02-01T04:45:00Z,29.1870,-90.6093,17.06,1111122 
LUMCON,ioos:station:LUMCON:102:1,2015-02-01T05:45:00Z,29.1870,-90.6093,16.39,1111122 
LUMCON,ioos:station:LUMCON:102:1,2015-02-01T06:45:00Z,29.1870,-90.6093,17.06,1111122 
LUMCON,ioos:station:LUMCON:102:1,2015-02-01T07:45:00Z,29.1870,-90.6093,17.0,1111122 
LUMCON,ioos:station:LUMCON:102:1,2015-02-01T08:45:00Z,29.1870,-90.6093,17.06,1111122 
LUMCON,ioos:station:LUMCON:102:1,2015-02-01T09:45:00Z,29.1870,-90.6093,17.28,1111122 
LUMCON,ioos:station:LUMCON:102:1,2015-02-01T10:45:00Z,29.1870,-90.6093,16.89,1111122 
LUMCON,ioos:station:LUMCON:102:1,2015-02-01T11:45:00Z,29.1870,-90.6093,17.17,1111122 
LUMCON,ioos:station:LUMCON:102:1,2015-02-01T12:45:00Z,29.1870,-90.6093,17.28,1111122 
LUMCON,ioos:station:LUMCON:102:1,2015-02-01T13:45:00Z,29.1870,-90.6093,17.89,1111122 
LUMCON,ioos:station:LUMCON:102:1,2015-02-01T14:45:00Z,29.1870,-90.6093,18.56,1111122 
LUMCON,ioos:station:LUMCON:102:1,2015-02-01T15:45:00Z,29.1870,-90.6093,18.67,1111122 
LUMCON,ioos:station:LUMCON:102:1,2015-02-01T16:45:00Z,29.1870,-90.6093,18.89,1111122 
LUMCON,ioos:station:LUMCON:102:1,2015-02-01T17:45:00Z,29.1870,-90.6093,18.39,1111122 
LUMCON,ioos:station:LUMCON:102:1,2015-02-01T18:45:00Z,29.1870,-90.6093,17.89,1111122 
LUMCON,ioos:station:LUMCON:102:1,2015-02-01T19:45:00Z,29.1870,-90.6093,17.78,1111122 
LUMCON,ioos:station:LUMCON:102:1,2015-02-01T20:45:00Z,29.1870,-90.6093,17.56,1111122 
LUMCON,ioos:station:LUMCON:102:1,2015-02-01T21:45:00Z,29.1870,-90.6093,17.78,1111122 
LUMCON,ioos:station:LUMCON:102:1,2015-02-01T22:45:00Z,29.1870,-90.6093,18.0,1111122 
LUMCON,ioos:station:LUMCON:102:1,2015-02-01T23:45:00Z,29.1870,-90.6093,18.5,1111122 
LUMCON,ioos:station:LUMCON:102:1,2015-02-02T00:45:00Z,29.1870,-90.6093,18.0,1111122 
LUMCON,ioos:station:LUMCON:102:1,2015-02-02T01:45:00Z,29.1870,-90.6093,15.0,1111122 
LUMCON,ioos:station:LUMCON:102:1,2015-02-02T02:45:00Z,29.1870,-90.6093,14.56,1111122 
LUMCON,ioos:station:LUMCON:102:1,2015-02-02T03:45:00Z,29.1870,-90.6093,13.5,1111122 
LUMCON,ioos:station:LUMCON:102:1,2015-02-02T04:45:00Z,29.1870,-90.6093,13.39,1111122 
LUMCON,ioos:station:LUMCON:102:1,2015-02-02T05:45:00Z,29.1870,-90.6093,12.17,1111122 
LUMCON,ioos:station:LUMCON:102:1,2015-02-02T06:45:00Z,29.1870,-90.6093,10.39,1111122 
LUMCON,ioos:station:LUMCON:102:1,2015-02-02T07:45:00Z,29.1870,-90.6093,9.06,1111122 
LUMCON,ioos:station:LUMCON:102:1,2015-02-02T08:45:00Z,29.1870,-90.6093,7.78,1111122 
LUMCON,ioos:station:LUMCON:102:1,2015-02-02T09:45:00Z,29.1870,-90.6093,6.56,1111122 
LUMCON,ioos:station:LUMCON:102:1,2015-02-02T10:45:00Z,29.1870,-90.6093,6.89,1111122 
LUMCON,ioos:station:LUMCON:102:1,2015-02-02T11:45:00Z,29.1870,-90.6093,7.06,1111122 
LUMCON,ioos:station:LUMCON:102:1,2015-02-02T12:45:00Z,29.1870,-90.6093,7.67,1111122 
LUMCON,ioos:station:LUMCON:102:1,2015-02-02T13:45:00Z,29.1870,-90.6093,8.56,1111122 
LUMCON,ioos:station:LUMCON:102:1,2015-02-02T14:45:00Z,29.1870,-90.6093,9.0,1111122 
LUMCON,ioos:station:LUMCON:102:1,2015-02-02T15:45:00Z,29.1870,-90.6093,9.78,1111122 
LUMCON,ioos:station:LUMCON:102:1,2015-02-02T16:45:00Z,29.1870,-90.6093,10.17,1111122 
LUMCON,ioos:station:LUMCON:102:1,2015-02-02T19:45:00Z,29.1870,-90.6093,10.28,1111122 
LUMCON,ioos:station:LUMCON:102:1,2015-02-02T20:45:00Z,29.1870,-90.6093,10.0,1111122 
LUMCON,ioos:station:LUMCON:102:1,2015-02-02T21:45:00Z,29.1870,-90.6093,10.0,1111122 
LUMCON,ioos:station:LUMCON:102:1,2015-02-02T22:45:00Z,29.1870,-90.6093,10.06,1111122 
LUMCON,ioos:station:LUMCON:102:1,2015-02-03T00:45:00Z,29.1870,-90.6093,8.89,1111122 
LUMCON,ioos:station:LUMCON:102:1,2015-02-03T01:45:00Z,29.1870,-90.6093,8.06,1111122 
LUMCON,ioos:station:LUMCON:102:1,2015-02-03T02:45:00Z,29.1870,-90.6093,7.56,1111122 
LUMCON,ioos:station:LUMCON:102:1,2015-02-03T05:45:00Z,29.1870,-90.6093,6.5,1111122 
LUMCON,ioos:station:LUMCON:102:1,2015-02-03T06:45:00Z,29.1870,-90.6093,6.39,1111122 
LUMCON,ioos:station:LUMCON:102:1,2015-02-03T07:45:00Z,29.1870,-90.6093,6.67,1111122 
LUMCON,ioos:station:LUMCON:102:1,2015-02-03T08:45:00Z,29.1870,-90.6093,7.06,1111122 
LUMCON,ioos:station:LUMCON:102:1,2015-02-03T09:45:00Z,29.1870,-90.6093,7.39,1111122 
LUMCON,ioos:station:LUMCON:102:1,2015-02-03T10:45:00Z,29.1870,-90.6093,8.0,1111122 
LUMCON,ioos:station:LUMCON:102:1,2015-02-03T11:45:00Z,29.1870,-90.6093,8.67,1111122 
LUMCON,ioos:station:LUMCON:102:1,2015-02-03T12:45:00Z,29.1870,-90.6093,8.89,1111122 
LUMCON,ioos:station:LUMCON:102:1,2015-02-03T13:45:00Z,29.1870,-90.6093,8.78,1111122 
LUMCON,ioos:station:LUMCON:102:1,2015-02-03T14:45:00Z,29.1870,-90.6093,9.0,1111122 
LUMCON,ioos:station:LUMCON:102:1,2015-02-03T15:45:00Z,29.1870,-90.6093,9.17,1111122 
LUMCON,ioos:station:LUMCON:102:1,2015-02-03T16:45:00Z,29.1870,-90.6093,9.28,1111122 
LUMCON,ioos:station:LUMCON:102:1,2015-02-03T17:45:00Z,29.1870,-90.6093,9.56,1111122 
LUMCON,ioos:station:LUMCON:102:1,2015-02-03T18:45:00Z,29.1870,-90.6093,9.56,1111122 
LUMCON,ioos:station:LUMCON:102:1,2015-02-03T19:45:00Z,29.1870,-90.6093,9.28,1111122 
LUMCON,ioos:station:LUMCON:102:1,2015-02-03T20:45:00Z,29.1870,-90.6093,9.28,1111122 
LUMCON,ioos:station:LUMCON:102:1,2015-02-03T21:45:00Z,29.1870,-90.6093,9.0,1111122 
LUMCON,ioos:station:LUMCON:102:1,2015-02-03T22:45:00Z,29.1870,-90.6093,8.67,1111122 
LUMCON,ioos:station:LUMCON:102:1,2015-02-03T23:45:00Z,29.1870,-90.6093,8.67,1111122 
LUMCON,ioos:station:LUMCON:102:1,2015-02-04T00:45:00Z,29.1870,-90.6093,8.56,1111122 
LUMCON,ioos:station:LUMCON:102:1,2015-02-04T01:45:00Z,29.1870,-90.6093,9.06,1111122 
LUMCON,ioos:station:LUMCON:102:1,2015-02-04T02:45:00Z,29.1870,-90.6093,9.56,1111122 
LUMCON,ioos:station:LUMCON:102:1,2015-02-04T03:45:00Z,29.1870,-90.6093,9.06,1111122 
LUMCON,ioos:station:LUMCON:102:1,2015-02-04T04:45:00Z,29.1870,-90.6093,9.5,1111122 
LUMCON,ioos:station:LUMCON:102:1,2015-02-04T05:45:00Z,29.1870,-90.6093,9.5,1111122 
LUMCON,ioos:station:LUMCON:102:1,2015-02-04T06:45:00Z,29.1870,-90.6093,10.17,1111122 
LUMCON,ioos:station:LUMCON:102:1,2015-02-04T07:45:00Z,29.1870,-90.6093,10.78,1111122 
LUMCON,ioos:station:LUMCON:102:1,2015-02-04T08:45:00Z,29.1870,-90.6093,10.67,1111122 
LUMCON,ioos:station:LUMCON:102:1,2015-02-04T09:45:00Z,29.1870,-90.6093,11.28,1111122 
LUMCON,ioos:station:LUMCON:102:1,2015-02-04T10:45:00Z,29.1870,-90.6093,11.39,1111122 
LUMCON,ioos:station:LUMCON:102:1,2015-02-04T11:45:00Z,29.1870,-90.6093,11.17,1111122 
LUMCON,ioos:station:LUMCON:102:1,2015-02-04T12:45:00Z,29.1870,-90.6093,11.06,1111122 
LUMCON,ioos:station:LUMCON:102:1,2015-02-04T13:45:00Z,29.1870,-90.6093,11.17,1111122 
LUMCON,ioos:station:LUMCON:102:1,2015-02-04T14:45:00Z,29.1870,-90.6093,11.5,1111122 
LUMCON,ioos:station:LUMCON:102:1,2015-02-04T15:45:00Z,29.1870,-90.6093,11.67,1111122 
LUMCON,ioos:station:LUMCON:102:1,2015-02-04T16:45:00Z,29.1870,-90.6093,11.89,1111122 
LUMCON,ioos:station:LUMCON:102:1,2015-02-04T18:45:00Z,29.1870,-90.6093,12.56,1111122 
LUMCON,ioos:station:LUMCON:102:1,2015-02-04T19:45:00Z,29.1870,-90.6093,12.0,1111122 
LUMCON,ioos:station:LUMCON:102:1,2015-02-04T20:45:00Z,29.1870,-90.6093,11.67,1111122 
LUMCON,ioos:station:LUMCON:102:1,2015-02-04T21:45:00Z,29.1870,-90.6093,10.67,1111122 
LUMCON,ioos:station:LUMCON:102:1,2015-02-04T22:45:00Z,29.1870,-90.6093,10.67,1111122 
LUMCON,ioos:station:LUMCON:102:1,2015-02-04T23:45:00Z,29.1870,-90.6093,10.0,1111122 
LUMCON,ioos:station:LUMCON:102:1,2015-02-05T00:45:00Z,29.1870,-90.6093,9.78,1111122 
LUMCON,ioos:station:LUMCON:102:1,2015-02-05T01:45:00Z,29.1870,-90.6093,9.89,1111122 
LUMCON,ioos:station:LUMCON:102:1,2015-02-05T02:45:00Z,29.1870,-90.6093,10.06,1111122 
LUMCON,ioos:station:LUMCON:102:1,2015-02-05T03:45:00Z,29.1870,-90.6093,10.0,1111122 
LUMCON,ioos:station:LUMCON:102:1,2015-02-05T04:45:00Z,29.1870,-90.6093,9.56,1111122 
LUMCON,ioos:station:LUMCON:102:1,2015-02-05T05:45:00Z,29.1870,-90.6093,9.78,1111122 
LUMCON,ioos:station:LUMCON:102:1,2015-02-05T06:45:00Z,29.1870,-90.6093,9.5,1111122 
LUMCON,ioos:station:LUMCON:102:1,2015-02-05T07:45:00Z,29.1870,-90.6093,9.17,1111122 
LUMCON,ioos:station:LUMCON:102:1,2015-02-05T08:45:00Z,29.1870,-90.6093,9.5,1111122 
LUMCON,ioos:station:LUMCON:102:1,2015-02-05T09:45:00Z,29.1870,-90.6093,9.89,1111122 
LUMCON,ioos:station:LUMCON:102:1,2015-02-05T10:45:00Z,29.1870,-90.6093,10.5,1111122 
LUMCON,ioos:station:LUMCON:102:1,2015-02-05T11:45:00Z,29.1870,-90.6093,11.06,1111122 
LUMCON,ioos:station:LUMCON:102:1,2015-02-05T12:45:00Z,29.1870,-90.6093,11.5,1111122 
LUMCON,ioos:station:LUMCON:102:1,2015-02-05T13:45:00Z,29.1870,-90.6093,11.78,1111122 
LUMCON,ioos:station:LUMCON:102:1,2015-02-05T14:45:00Z,29.1870,-90.6093,12.28,1111122 
LUMCON,ioos:station:LUMCON:102:1,2015-02-05T15:45:00Z,29.1870,-90.6093,12.89,1111122 
LUMCON,ioos:station:LUMCON:102:1,2015-02-05T16:45:00Z,29.1870,-90.6093,14.06,1111122 
LUMCON,ioos:station:LUMCON:102:1,2015-02-05T17:45:00Z,29.1870,-90.6093,14.28,1111122 
LUMCON,ioos:station:LUMCON:102:1,2015-02-05T18:45:00Z,29.1870,-90.6093,14.28,1111122 
LUMCON,ioos:station:LUMCON:102:1,2015-02-05T19:45:00Z,29.1870,-90.6093,13.78,1111122 
LUMCON,ioos:station:LUMCON:102:1,2015-02-05T20:45:00Z,29.1870,-90.6093,12.56,1111122 
LUMCON,ioos:station:LUMCON:102:1,2015-02-05T21:45:00Z,29.1870,-90.6093,12.28,1111122 
LUMCON,ioos:station:LUMCON:102:1,2015-02-05T22:45:00Z,29.1870,-90.6093,11.67,1111122 
LUMCON,ioos:station:LUMCON:102:1,2015-02-05T23:45:00Z,29.1870,-90.6093,11.06,1111122 
LUMCON,ioos:station:LUMCON:102:1,2015-02-06T00:45:00Z,29.1870,-90.6093,10.5,1111122 
LUMCON,ioos:station:LUMCON:102:1,2015-02-06T01:45:00Z,29.1870,-90.6093,10.0,1111122 
LUMCON,ioos:station:LUMCON:102:1,2015-02-06T02:45:00Z,29.1870,-90.6093,9.28,1111122 
LUMCON,ioos:station:LUMCON:102:1,2015-02-06T03:45:00Z,29.1870,-90.6093,8.89,1111122 
LUMCON,ioos:station:LUMCON:102:1,2015-02-06T04:45:00Z,29.1870,-90.6093,8.28,1111122 
LUMCON,ioos:station:LUMCON:102:1,2015-02-06T05:45:00Z,29.1870,-90.6093,8.06,1111122 
LUMCON,ioos:station:LUMCON:102:1,2015-02-06T06:45:00Z,29.1870,-90.6093,7.67,1111122 
LUMCON,ioos:station:LUMCON:102:1,2015-02-06T07:45:00Z,29.1870,-90.6093,7.5,1111122 
LUMCON,ioos:station:LUMCON:102:1,2015-02-06T08:45:00Z,29.1870,-90.6093,7.39,1111122 
LUMCON,ioos:station:LUMCON:102:1,2015-02-06T09:45:00Z,29.1870,-90.6093,7.5,1111122 
LUMCON,ioos:station:LUMCON:102:1,2015-02-06T10:45:00Z,29.1870,-90.6093,7.67,1111122 
LUMCON,ioos:station:LUMCON:102:1,2015-02-06T11:45:00Z,29.1870,-90.6093,8.28,1111122 
LUMCON,ioos:station:LUMCON:102:1,2015-02-06T12:45:00Z,29.1870,-90.6093,9.17,1111122 
LUMCON,ioos:station:LUMCON:102:1,2015-02-06T13:45:00Z,29.1870,-90.6093,9.89,1111122 
LUMCON,ioos:station:LUMCON:102:1,2015-02-06T14:45:00Z,29.1870,-90.6093,10.39,1111122 
LUMCON,ioos:station:LUMCON:102:1,2015-02-06T15:45:00Z,29.1870,-90.6093,10.89,1111122 
LUMCON,ioos:station:LUMCON:102:1,2015-02-06T16:45:00Z,29.1870,-90.6093,11.28,1111122 
LUMCON,ioos:station:LUMCON:102:1,2015-02-06T17:45:00Z,29.1870,-90.6093,11.56,1111122 
LUMCON,ioos:station:LUMCON:102:1,2015-02-06T18:45:00Z,29.1870,-90.6093,11.78,1111122 
LUMCON,ioos:station:LUMCON:102:1,2015-02-06T19:45:00Z,29.1870,-90.6093,12.06,1111122 
LUMCON,ioos:station:LUMCON:102:1,2015-02-06T20:45:00Z,29.1870,-90.6093,12.0,1111122 
LUMCON,ioos:station:LUMCON:102:1,2015-02-06T21:45:00Z,29.1870,-90.6093,12.06,1111122 
LUMCON,ioos:station:LUMCON:102:1,2015-02-06T22:45:00Z,29.1870,-90.6093,12.06,1111122 
LUMCON,ioos:station:LUMCON:102:1,2015-02-06T23:45:00Z,29.1870,-90.6093,12.0,1111122 
LUMCON,ioos:station:LUMCON:102:1,2015-02-07T00:45:00Z,29.1870,-90.6093,12.17,1111122 
LUMCON,ioos:station:LUMCON:102:1,2015-02-07T01:45:00Z,29.1870,-90.6093,11.89,1111122 
LUMCON,ioos:station:LUMCON:102:1,2015-02-07T02:45:00Z,29.1870,-90.6093,12.0,1111122 
LUMCON,ioos:station:LUMCON:102:1,2015-02-07T03:45:00Z,29.1870,-90.6093,11.78,1111122 
LUMCON,ioos:station:LUMCON:102:1,2015-02-07T04:45:00Z,29.1870,-90.6093,11.78,1111122 
LUMCON,ioos:station:LUMCON:102:1,2015-02-07T05:45:00Z,29.1870,-90.6093,11.78,1111122 
LUMCON,ioos:station:LUMCON:102:1,2015-02-07T06:45:00Z,29.1870,-90.6093,11.67,1111122 
LUMCON,ioos:station:LUMCON:102:1,2015-02-07T07:45:00Z,29.1870,-90.6093,11.5,1111122 
LUMCON,ioos:station:LUMCON:102:1,2015-02-07T08:45:00Z,29.1870,-90.6093,11.78,1111122 
LUMCON,ioos:station:LUMCON:102:1,2015-02-07T09:45:00Z,29.1870,-90.6093,12.28,1111122 
LUMCON,ioos:station:LUMCON:102:1,2015-02-07T10:45:00Z,29.1870,-90.6093,12.67,1111122 
LUMCON,ioos:station:LUMCON:102:1,2015-02-07T11:45:00Z,29.1870,-90.6093,12.89,1111122 
LUMCON,ioos:station:LUMCON:102:1,2015-02-07T12:45:00Z,29.1870,-90.6093,13.39,1111122 
LUMCON,ioos:station:LUMCON:102:1,2015-02-07T13:45:00Z,29.1870,-90.6093,14.06,1111122 
LUMCON,ioos:station:LUMCON:102:1,2015-02-07T14:45:00Z,29.1870,-90.6093,14.78,1111122 
LUMCON,ioos:station:LUMCON:102:1,2015-02-07T15:45:00Z,29.1870,-90.6093,15.5,1111122 
LUMCON,ioos:station:LUMCON:102:1,2015-02-07T16:45:00Z,29.1870,-90.6093,15.5,1111122 
LUMCON,ioos:station:LUMCON:102:1,2015-02-07T17:45:00Z,29.1870,-90.6093,15.5,1111122 
LUMCON,ioos:station:LUMCON:102:1,2015-02-07T18:45:00Z,29.1870,-90.6093,15.17,1111122 
LUMCON,ioos:station:LUMCON:102:1,2015-02-07T19:45:00Z,29.1870,-90.6093,15.0,1111122 
LUMCON,ioos:station:LUMCON:102:1,2015-02-07T20:45:00Z,29.1870,-90.6093,14.89,1111122 
LUMCON,ioos:station:LUMCON:102:1,2015-02-07T21:45:00Z,29.1870,-90.6093,15.0,1111122 
LUMCON,ioos:station:LUMCON:102:1,2015-02-07T22:45:00Z,29.1870,-90.6093,15.17,1111122 
LUMCON,ioos:station:LUMCON:102:1,2015-02-07T23:45:00Z,29.1870,-90.6093,15.17,1111122 
LUMCON,ioos:station:LUMCON:102:1,2015-02-08T00:45:00Z,29.1870,-90.6093,15.67,1111122 
LUMCON,ioos:station:LUMCON:102:1,2015-02-08T01:45:00Z,29.1870,-90.6093,16.06,1111122 
LUMCON,ioos:station:LUMCON:102:1,2015-02-08T02:45:00Z,29.1870,-90.6093,15.89,1111122 
LUMCON,ioos:station:LUMCON:102:1,2015-02-08T03:45:00Z,29.1870,-90.6093,15.56,1111122 
LUMCON,ioos:station:LUMCON:102:1,2015-02-08T04:45:00Z,29.1870,-90.6093,15.56,1111122 
LUMCON,ioos:station:LUMCON:102:1,2015-02-08T05:45:00Z,29.1870,-90.6093,15.67,1111122 
LUMCON,ioos:station:LUMCON:102:1,2015-02-08T06:45:00Z,29.1870,-90.6093,15.89,1111122 
LUMCON,ioos:station:LUMCON:102:1,2015-02-08T07:45:00Z,29.1870,-90.6093,16.06,1111122 
LUMCON,ioos:station:LUMCON:102:1,2015-02-08T08:45:00Z,29.1870,-90.6093,16.89,1111122 
LUMCON,ioos:station:LUMCON:102:1,2015-02-08T09:45:00Z,29.1870,-90.6093,16.28,1111122 
LUMCON,ioos:station:LUMCON:102:1,2015-02-08T10:45:00Z,29.1870,-90.6093,16.78,1111122 
LUMCON,ioos:station:LUMCON:102:1,2015-02-08T11:45:00Z,29.1870,-90.6093,17.06,1111122 
LUMCON,ioos:station:LUMCON:102:1,2015-02-08T12:45:00Z,29.1870,-90.6093,17.5,1111122 
LUMCON,ioos:station:LUMCON:102:1,2015-02-08T13:45:00Z,29.1870,-90.6093,18.06,1111122 
LUMCON,ioos:station:LUMCON:102:1,2015-02-08T14:45:00Z,29.1870,-90.6093,18.0,1111122 
LUMCON,ioos:station:LUMCON:102:1,2015-02-08T15:45:00Z,29.1870,-90.6093,18.0,1111122 
LUMCON,ioos:station:LUMCON:102:1,2015-02-08T16:45:00Z,29.1870,-90.6093,18.67,1111122 
LUMCON,ioos:station:LUMCON:102:1,2015-02-08T17:45:00Z,29.1870,-90.6093,19.06,1111122 
LUMCON,ioos:station:LUMCON:102:1,2015-02-08T18:45:00Z,29.1870,-90.6093,18.5,1111122 
LUMCON,ioos:station:LUMCON:102:1,2015-02-08T19:45:00Z,29.1870,-90.6093,18.06,1111122 
LUMCON,ioos:station:LUMCON:102:1,2015-02-08T20:45:00Z,29.1870,-90.6093,18.06,1111122 
LUMCON,ioos:station:LUMCON:102:1,2015-02-08T21:45:00Z,29.1870,-90.6093,17.56,1111122 
LUMCON,ioos:station:LUMCON:102:1,2015-02-08T22:45:00Z,29.1870,-90.6093,16.67,1111122 
LUMCON,ioos:station:LUMCON:102:1,2015-02-08T23:45:00Z,29.1870,-90.6093,17.0,1111122 
LUMCON,ioos:station:LUMCON:102:1,2015-02-09T00:45:00Z,29.1870,-90.6093,17.0,1111122 
LUMCON,ioos:station:LUMCON:102:1,2015-02-09T01:45:00Z,29.1870,-90.6093,17.39,1111122 
LUMCON,ioos:station:LUMCON:102:1,2015-02-09T02:45:00Z,29.1870,-90.6093,17.17,1111122 
LUMCON,ioos:station:LUMCON:102:1,2015-02-09T03:45:00Z,29.1870,-90.6093,16.5,1111122 
LUMCON,ioos:station:LUMCON:102:1,2015-02-09T04:45:00Z,29.1870,-90.6093,16.06,1111122 
LUMCON,ioos:station:LUMCON:102:1,2015-02-09T05:45:00Z,29.1870,-90.6093,16.17,1111122 
LUMCON,ioos:station:LUMCON:102:1,2015-02-09T06:45:00Z,29.1870,-90.6093,16.17,1111122 
LUMCON,ioos:station:LUMCON:102:1,2015-02-09T07:45:00Z,29.1870,-90.6093,16.06,1111122 
LUMCON,ioos:station:LUMCON:102:1,2015-02-09T08:45:00Z,29.1870,-90.6093,16.5,1111122 
LUMCON,ioos:station:LUMCON:102:1,2015-02-09T09:45:00Z,29.1870,-90.6093,17.06,1111122 
LUMCON,ioos:station:LUMCON:102:1,2015-02-09T10:45:00Z,29.1870,-90.6093,17.56,1111122 
LUMCON,ioos:station:LUMCON:102:1,2015-02-09T11:45:00Z,29.1870,-90.6093,17.39,1111122 
LUMCON,ioos:station:LUMCON:102:1,2015-02-09T12:45:00Z,29.1870,-90.6093,18.56,1111122 
LUMCON,ioos:station:LUMCON:102:1,2015-02-09T13:45:00Z,29.1870,-90.6093,19.78,1111122 
LUMCON,ioos:station:LUMCON:102:1,2015-02-09T14:45:00Z,29.1870,-90.6093,21.78,1111122 
LUMCON,ioos:station:LUMCON:102:1,2015-02-09T15:45:00Z,29.1870,-90.6093,22.0,1111122 
LUMCON,ioos:station:LUMCON:102:1,2015-02-09T16:45:00Z,29.1870,-90.6093,22.67,1111122 
LUMCON,ioos:station:LUMCON:102:1,2015-02-09T17:45:00Z,29.1870,-90.6093,22.39,1111122 
LUMCON,ioos:station:LUMCON:102:1,2015-02-09T18:45:00Z,29.1870,-90.6093,21.06,1111122 
LUMCON,ioos:station:LUMCON:102:1,2015-02-09T19:45:00Z,29.1870,-90.6093,20.56,1111122 
LUMCON,ioos:station:LUMCON:102:1,2015-02-09T20:45:00Z,29.1870,-90.6093,19.67,1111122 
LUMCON,ioos:station:LUMCON:102:1,2015-02-09T21:45:00Z,29.1870,-90.6093,18.67,1111122 
LUMCON,ioos:station:LUMCON:102:1,2015-02-09T22:45:00Z,29.1870,-90.6093,18.28,1111122 
LUMCON,ioos:station:LUMCON:102:1,2015-02-09T23:45:00Z,29.1870,-90.6093,17.89,1111122 
LUMCON,ioos:station:LUMCON:102:1,2015-02-10T00:45:00Z,29.1870,-90.6093,17.5,1111122 
LUMCON,ioos:station:LUMCON:102:1,2015-02-10T01:45:00Z,29.1870,-90.6093,16.56,1111122 
LUMCON,ioos:station:LUMCON:102:1,2015-02-10T02:45:00Z,29.1870,-90.6093,15.89,1111122 
LUMCON,ioos:station:LUMCON:102:1,2015-02-10T03:45:00Z,29.1870,-90.6093,15.28,1111122 
LUMCON,ioos:station:LUMCON:102:1,2015-02-10T04:45:00Z,29.1870,-90.6093,14.5,1111122 
LUMCON,ioos:station:LUMCON:102:1,2015-02-10T05:45:00Z,29.1870,-90.6093,14.17,1111122 
LUMCON,ioos:station:LUMCON:102:1,2015-02-10T06:45:00Z,29.1870,-90.6093,12.89,1111122 
LUMCON,ioos:station:LUMCON:102:1,2015-02-10T07:45:00Z,29.1870,-90.6093,12.0,1111122 
LUMCON,ioos:station:LUMCON:102:1,2015-02-10T08:45:00Z,29.1870,-90.6093,11.06,1111122 
LUMCON,ioos:station:LUMCON:102:1,2015-02-10T09:45:00Z,29.1870,-90.6093,10.56,1111122 
LUMCON,ioos:station:LUMCON:102:1,2015-02-10T10:45:00Z,29.1870,-90.6093,10.89,1111122 
LUMCON,ioos:station:LUMCON:102:1,2015-02-10T11:45:00Z,29.1870,-90.6093,11.89,1111122 
LUMCON,ioos:station:LUMCON:102:1,2015-02-10T12:45:00Z,29.1870,-90.6093,13.28,1111122 
LUMCON,ioos:station:LUMCON:102:1,2015-02-10T13:45:00Z,29.1870,-90.6093,14.89,1111122 
LUMCON,ioos:station:LUMCON:102:1,2015-02-10T14:45:00Z,29.1870,-90.6093,16.28,1111122 
LUMCON,ioos:station:LUMCON:102:1,2015-02-10T15:30:00Z,29.1870,-90.6093,17.06,1111122 
LUMCON,ioos:station:LUMCON:102:1,2015-02-10T16:45:00Z,29.1870,-90.6093,17.89,1111122 
LUMCON,ioos:station:LUMCON:102:1,2015-02-10T17:45:00Z,29.1870,-90.6093,18.67,1111122 
LUMCON,ioos:station:LUMCON:102:1,2015-02-10T18:45:00Z,29.1870,-90.6093,18.28,1111122 
LUMCON,ioos:station:LUMCON:102:1,2015-02-10T19:45:00Z,29.1870,-90.6093,16.5,1111122 
LUMCON,ioos:station:LUMCON:102:1,2015-02-10T20:30:00Z,29.1870,-90.6093,16.0,1111122 
LUMCON,ioos:station:LUMCON:102:1,2015-02-10T21:45:00Z,29.1870,-90.6093,15.56,1111122 
LUMCON,ioos:station:LUMCON:102:1,2015-02-10T22:30:00Z,29.1870,-90.6093,15.39,1111122 
LUMCON,ioos:station:LUMCON:102:1,2015-02-10T23:45:00Z,29.1870,-90.6093,15.17,1111122 
LUMCON,ioos:station:LUMCON:102:1,2015-02-11T00:45:00Z,29.1870,-90.6093,15.06,1111122 
LUMCON,ioos:station:LUMCON:102:1,2015-02-11T01:45:00Z,29.1870,-90.6093,14.56,1111122 
LUMCON,ioos:station:LUMCON:102:1,2015-02-11T02:45:00Z,29.1870,-90.6093,14.0,1111122 
LUMCON,ioos:station:LUMCON:102:1,2015-02-11T03:45:00Z,29.1870,-90.6093,13.78,1111122 
LUMCON,ioos:station:LUMCON:102:1,2015-02-11T04:45:00Z,29.1870,-90.6093,13.78,1111122 
LUMCON,ioos:station:LUMCON:102:1,2015-02-11T05:45:00Z,29.1870,-90.6093,13.89,1111122 
LUMCON,ioos:station:LUMCON:102:1,2015-02-11T06:45:00Z,29.1870,-90.6093,13.78,1111122 
LUMCON,ioos:station:LUMCON:102:1,2015-02-11T07:45:00Z,29.1870,-90.6093,13.78,1111122 
LUMCON,ioos:station:LUMCON:102:1,2015-02-11T08:45:00Z,29.1870,-90.6093,13.89,1111122 
LUMCON,ioos:station:LUMCON:102:1,2015-02-11T09:45:00Z,29.1870,-90.6093,13.39,1111122 
LUMCON,ioos:station:LUMCON:102:1,2015-02-11T10:45:00Z,29.1870,-90.6093,13.5,1111122 
LUMCON,ioos:station:LUMCON:102:1,2015-02-11T11:45:00Z,29.1870,-90.6093,13.89,1111122 
LUMCON,ioos:station:LUMCON:102:1,2015-02-11T12:45:00Z,29.1870,-90.6093,14.28,1111122 
LUMCON,ioos:station:LUMCON:102:1,2015-02-11T13:45:00Z,29.1870,-90.6093,14.56,1111122 
LUMCON,ioos:station:LUMCON:102:1,2015-02-11T14:45:00Z,29.1870,-90.6093,15.17,1111122 
LUMCON,ioos:station:LUMCON:102:1,2015-02-11T15:45:00Z,29.1870,-90.6093,15.39,1111122 
LUMCON,ioos:station:LUMCON:102:1,2015-02-11T16:45:00Z,29.1870,-90.6093,16.06,1111122 
LUMCON,ioos:station:LUMCON:102:1,2015-02-11T17:45:00Z,29.1870,-90.6093,16.28,1111122 
LUMCON,ioos:station:LUMCON:102:1,2015-02-11T18:45:00Z,29.1870,-90.6093,15.78,1111122 
LUMCON,ioos:station:LUMCON:102:1,2015-02-11T19:45:00Z,29.1870,-90.6093,15.78,1111122 
LUMCON,ioos:station:LUMCON:102:1,2015-02-11T20:45:00Z,29.1870,-90.6093,15.89,1111122 
LUMCON,ioos:station:LUMCON:102:1,2015-02-11T21:45:00Z,29.1870,-90.6093,15.78,1111122 
LUMCON,ioos:station:LUMCON:102:1,2015-02-11T22:45:00Z,29.1870,-90.6093,15.5,1111122 
LUMCON,ioos:station:LUMCON:102:1,2015-02-11T23:45:00Z,29.1870,-90.6093,15.06,1111122 
LUMCON,ioos:station:LUMCON:102:1,2015-02-12T00:45:00Z,29.1870,-90.6093,14.89,1111122 
LUMCON,ioos:station:LUMCON:102:1,2015-02-12T01:45:00Z,29.1870,-90.6093,14.89,1111122 
LUMCON,ioos:station:LUMCON:102:1,2015-02-12T02:45:00Z,29.1870,-90.6093,14.67,1111122 
LUMCON,ioos:station:LUMCON:102:1,2015-02-12T03:45:00Z,29.1870,-90.6093,14.17,1111122 
LUMCON,ioos:station:LUMCON:102:1,2015-02-12T04:45:00Z,29.1870,-90.6093,14.28,1111122 
LUMCON,ioos:station:LUMCON:102:1,2015-02-12T05:45:00Z,29.1870,-90.6093,13.89,1111122 
LUMCON,ioos:station:LUMCON:102:1,2015-02-12T06:45:00Z,29.1870,-90.6093,13.67,1111122 
LUMCON,ioos:station:LUMCON:102:1,2015-02-12T07:45:00Z,29.1870,-90.6093,13.78,1111122 
LUMCON,ioos:station:LUMCON:102:1,2015-02-12T08:45:00Z,29.1870,-90.6093,13.39,1111122 
LUMCON,ioos:station:LUMCON:102:1,2015-02-12T09:45:00Z,29.1870,-90.6093,13.06,1111122 
LUMCON,ioos:station:LUMCON:102:1,2015-02-12T10:45:00Z,29.1870,-90.6093,13.17,1111122 
LUMCON,ioos:station:LUMCON:102:1,2015-02-12T11:45:00Z,29.1870,-90.6093,13.67,1111122 
LUMCON,ioos:station:LUMCON:102:1,2015-02-12T12:45:00Z,29.1870,-90.6093,14.56,1111122 
LUMCON,ioos:station:LUMCON:102:1,2015-02-12T13:45:00Z,29.1870,-90.6093,15.39,1111122 
LUMCON,ioos:station:LUMCON:102:1,2015-02-12T14:45:00Z,29.1870,-90.6093,16.56,1111122 
LUMCON,ioos:station:LUMCON:102:1,2015-02-12T15:45:00Z,29.1870,-90.6093,16.78,1111122 
 